Regional Weather Roundup
Issued by NWS Little Rock, AR

Home | Current Version | Previous Version | Text Only | Print | Product List | Glossary Off
Versions: 1 2 3 4 5 6 7 8 9 10 11 12 13 14 15 16 17 18 19 20 21 22 23 24 25 26 27 28 29 30 31 32 33 34 35 36 37 38 39 40 41 42 43 44 45 46 47 48 49 50

765
ASUS44 KLZK 111805
RWRLZK

WEATHER ROUNDUP FOR ARKANSAS
NATIONAL WEATHER SERVICE LITTLE ROCK AR
1200 PM CST THU FEB 11 2016

NOTE: "FAIR" INDICATES FEW OR NO CLOUDS BELOW 12,000 FEET WITH NO
SIGNIFICANT WEATHER AND/OR OBSTRUCTIONS TO VISIBILITY.

ARZ001-003-010-029-111900-
NORTHWEST ARKANSAS

CITY           SKY/WX    TMP DP  RH WIND       PRES   REMARKS
FAYETTEVILLE   SUNNY     49  26  41 VRB6      30.17S
6HR MIN TEMP:  26; 6HR MAX TEMP:  49;

FORT SMITH     SUNNY     56  27  32 VRB5      30.15S
6HR MIN TEMP:  33; 6HR MAX TEMP:  56;

HARRISON       SUNNY     42  19  39 NE9       30.20S
6HR MIN TEMP:  24; 6HR MAX TEMP:  42;

BENTONVILLE    SUNNY    N/A N/A N/A NE6       30.18F
ROGERS         SUNNY     47  22  37 NE12      30.18S
6HR MIN TEMP:  28; 6HR MAX TEMP:  47;

SILOAM SPGS    SUNNY     48  25  40 E3        30.18S
6HR MIN TEMP:  32; 6HR MAX TEMP:  48;

HIGHFILL       SUNNY     50  25  37 NE13      30.17R
6HR MIN TEMP:  29; 6HR MAX TEMP:  50;

SPRINGDALE     SUNNY     46  23  39 NE12      30.19S
$$

ARZ004-005-016-111900-
NORTH CENTRAL ARKANSAS

CITY           SKY/WX    TMP DP  RH WIND       PRES   REMARKS
BATESVILLE     SUNNY     45  18  33 NE12      30.24S
6HR MIN TEMP:  27; 6HR MAX TEMP:  45;

FLIPPIN        SUNNY     43  16  33 NE5       30.21S
6HR MIN TEMP:  27; 6HR MAX TEMP:  43;

MTN HOME       SUNNY     41  15  35 VRB5      30.21F
6HR MIN TEMP:  23; 6HR MAX TEMP:  41;

$$

ARZ040-041-111900-
WEST CENTRAL ARKANSAS

CITY           SKY/WX    TMP DP  RH WIND       PRES   REMARKS
MENA           SUNNY     64  34  32 NE5       30.11S
MOUNT IDA      SUNNY     59  32  36 VRB3      30.10S
6HR MIN TEMP:  32; 6HR MAX TEMP:  60;

$$

ARZ009-017-025-026-028-111900-
NORTHEAST ARKANSAS

CITY           SKY/WX    TMP DP  RH WIND       PRES   REMARKS
CORNING        FAIR      39  19  45 NE15G21   30.27F
JONESBORO      SUNNY     40  23  50 NE22      30.23F
6HR MIN TEMP:  26; 6HR MAX TEMP:  40;

NEWPORT        SUNNY     43  20  40 N13G20    30.24F
6HR MIN TEMP:  26; 6HR MAX TEMP:  43;

WALNUT RIDGE   SUNNY     39  19  45 E21       30.25F
6HR MIN TEMP:  25; 6HR MAX TEMP:  39;

BLYTHEVILLE    SUNNY     44  22  41 NE16      30.24F
6HR MIN TEMP:  28; 6HR MAX TEMP:  45;

NW BLYTHEVILLE SUNNY     41  23  48 NE16G23   30.24F
$$

ARZ022-023-033-042-044-111900-
CENTRAL ARKANSAS

CITY           SKY/WX    TMP DP  RH WIND       PRES   REMARKS
LITTLE ROCK    MOSUNNY   47  23  38 NE10      30.19F
6HR MIN TEMP:  31; 6HR MAX TEMP:  47;

N LITTLE ROCK  MOSUNNY   46  26  45 NE13G18   30.19F
6HR MIN TEMP:  31; 6HR MAX TEMP:  47;

JACKSONVILLE   SUNNY     46  23  40 E15       30.18F
6HR MIN TEMP:  31; 6HR MAX TEMP:  46;

SEARCY         SUNNY     45  23  42 NE13G18   30.22S
6HR MIN TEMP:  28; 6HR MAX TEMP:  46;

HOT SPRINGS    SUNNY     54  30  40 E9        30.13S
6HR MIN TEMP:  33; 6HR MAX TEMP:  54;

RUSSELLVILLE   SUNNY     50  24  36 E8        30.17R
6HR MIN TEMP:  27; 6HR MAX TEMP:  51;

CLINTON        FAIR      48  21  34 CALM      30.20F
$$

ARZ036-111900-
EAST ARKANSAS

CITY           SKY/WX    TMP DP  RH WIND       PRES   REMARKS
WEST MEMPHIS   SUNNY     46  24  42 NE12      30.18F
6HR MIN TEMP:  29; 6HR MAX TEMP:  46;

$$

ARZ050-053-066-070-073-111900-
SOUTHWEST ARKANSAS

CITY           SKY/WX    TMP DP  RH WIND       PRES   REMARKS
ARKADELPHIA    FAIR      56  35  45 N10       30.14S
6HR MIN TEMP:  28; 6HR MAX TEMP:  56;

CAMDEN         SUNNY     64  36  34 N8        30.11F
TEXARKANA      SUNNY     66  35  31 W5        30.09F
6HR MIN TEMP:  48; 6HR MAX TEMP:  67;

EL DORADO      SUNNY     68  37  32 NW9       30.10F
6HR MIN TEMP:  52; 6HR MAX TEMP:  68;

DE QUEEN       SUNNY     64  41  42 VRB5      30.09R
6HR MIN TEMP:  28; 6HR MAX TEMP:  65;

$$

ARZ056-057-069-111900-
SOUTHEAST ARKANSAS

CITY           SKY/WX    TMP DP  RH WIND       PRES   REMARKS
PINE BLUFF     SUNNY     47  29  49 N15       30.18R
6HR MIN TEMP:  30; 6HR MAX TEMP:  47;

STUTTGART      SUNNY     46  27  46 N15       30.17F
6HR MIN TEMP:  30; 6HR MAX TEMP:  46;

MONTICELLO     SUNNY     60  36  40 N9        30.12R
6HR MIN TEMP:  40; 6HR MAX TEMP:  62;


$$






USA.gov is the U.S. government's official web portal to all federal, state and local government web resources and services.